[Iaude] MPEC C43: 2024 CJ [a=1.13,e=0.25,i=3.6,H=25.2]

mpec at marsden.cfa.harvard.edu mpec at marsden.cfa.harvard.edu
Sun Feb 4 17:40:29 EST 2024


M.P.E.C. 2024-C43                              Issued 2024 February 4, 22:38 UT

     The Minor Planet Electronic Circulars contain information on unusual
         minor planets, routine data on comets and natural satellites,
         and occasional editorial announcements.  They are published
    on behalf of Division F of the International Astronomical Union by the
          Minor Planet Center, Smithsonian Astrophysical Observatory,
                          Cambridge, MA 02138, U.S.A.
			  
             Prepared using the Tamkin Foundation Computer Network

                              MPC at CFA.HARVARD.EDU
            URL https://www.minorplanetcenter.net/    ISSN 1523-6714

                                    2024 CJ                                     


Observations:
     K24C00J* C2024 02 03.50812412 06 28.951+33 16 04.45         20.16wXEC043F52
     K24C00J  C2024 02 03.53173112 06 09.865+33 16 49.22         20.21wXEC043F52
     K24C00J  C2024 02 03.54360412 06 00.221+33 17 10.79         19.87wXEC043F52
     K24C00J  C2024 02 03.60845012 05 07.943+33 18 57.62         19.95GVEC043F52
     K24C00J  C2024 02 03.60909512 05 07.417+33 18 58.65         19.89GVEC043F52
     K24C00J 6C2024 02 04.13068011 59 10.205+33 31 30.36         20.0 GVEC043Z84
     K24C00J 6C2024 02 04.13282311 59 08.614+33 31 33.39         20.4 GVEC043Z84
     K24C00J 6C2024 02 04.13495711 59 07.030+33 31 36.51         19.8 GVEC043Z84
     K24C00J KC2024 02 04.17970411 58 31.39 +33 32 02.9          20.1 GVEC043L01
     K24C00J KC2024 02 04.18138711 58 30.15 +33 32 04.5          20.2 GVEC043L01
     K24C00J KC2024 02 04.18306911 58 28.99 +33 32 06.9          20.1 GVEC043L01
     K24C00J KC2024 02 04.18475111 58 27.76 +33 32 08.1          20.2 GVEC043L01
     K24C00J KC2024 02 04.18643411 58 26.57 +33 32 10.3          20.0 GVEC043L01
     K24C00J KC2024 02 04.24594911 58 01.01 +33 33 40.9          20.3 GVEC043H21
     K24C00J KC2024 02 04.24874511 57 58.99 +33 33 45.9          20.4 GVEC043H21
     K24C00J KC2024 02 04.25154211 57 56.97 +33 33 50.4          20.3 GVEC043H21
     K24C00J KC2024 02 04.25433811 57 54.97 +33 33 55.2          20.0 GVEC043H21
     K24C00J KC2024 02 04.25704111 57 53.04 +33 33 59.8          19.9 GVEC043H21
     K24C00J KC2024 02 04.89762 11 51 05.95 +33 46 53.0          19.7 VZEC043M63
     K24C00J KC2024 02 04.91783 11 50 52.76 +33 47 24.1          20.2 VZEC043M63

Observer details:
F52 Pan-STARRS 2, Haleakala.  Observers J. Herman, T. Lowe, P. Minguez, A.
    Schultz, I. Smith.  Measurers K. Chambers, T. de Boer, J. Fairlamb, H.
    Gao, M. Huber, C.-C. Lin, E. Magnier, Y. Ramanjooloo, R. Wainscoat, R.
    Weryk.  1.8-m Ritchey-Chretien + CCD.
H21 Astronomical Research Observatory, Westfield.  Observer R. Holmes.
    Measurers T. Linder, R. Holmes, L. Horn.  0.76-m f/3.0 astrograph + CCD.
L01 Visnjan Observatory, Tican.  Observer K. Korlevic.  1.0-m f/2.9 reflector
    + CCD.
M63 RPF Observatory, Gagliano del Capo.  Observer D. Licchelli.  0.30-m f/5.3
    reflector + CCD.
Z84 Calar Alto-Schmidt.  Observers M. Micheli, R. Kresken.  Measurers R.
    Kresken, M. Micheli, F. Ocana, L. Conversi.  0.8-m f/3 Schmidt + CCD.

Orbital elements:
2024 CJ                                                  Earth MOID = 0.0136 AU
Epoch 2023 Sept. 13.0 TT = JDT 2460200.5                MPC                     
M 295.76211              (2000.0)            P               Q                  
n   0.81569157     Peri.  301.53172     +0.56929514     -0.82012256             
a   1.1344501      Node   113.65995     +0.77396587     +0.51105754             
e   0.2502589      Incl.    3.59691     +0.27727220     +0.25733087             
P   1.21           H   25.27          G   0.15           U   8                  
Residuals in seconds of arc
240203 F52  0.2-  0.1+    240204 Z84  0.2+  0.1+    240204 H21  0.0   0.2+
240203 F52  0.2-  0.1+    240204 L01  0.4-  0.2+    240204 H21  0.2-  0.1-
240203 F52  0.5-  0.0     240204 L01  0.7-  0.2-    240204 H21  0.2-  0.1-
240203 F52  0.2+  0.0     240204 L01  0.1+  0.3+    240204 H21  0.1-  0.1-
240203 F52  0.0   0.0     240204 L01  0.1-  0.4-    240204 M63  0.2+  0.1+
240204 Z84  0.1-  0.0     240204 L01  0.2+  0.2-    240204 M63  0.0   0.4+
240204 Z84  0.0   0.0     240204 H21  0.3+  0.0

Ephemeris:
2024 CJ                  a,e,i = 1.13, 0.25, 4                   q = 0.8505
Date    TT    R. A. (2000) Decl.     Delta      r    Elong.  Phase     V
2024 01 05    20 11 34.5 -28 18 40   0.07784 0.9092    17.1   161.5    31.0
...
2024 01 20    17 43 23.8 -09 39 54   0.02826 0.9611    35.7   143.3    24.8
...
2024 01 28    14 04 21.2 +24 28 33   0.02820 0.9924   105.0    73.4    20.1
...
2024 02 03    12 12 42.3 +32 59 49   0.04389 1.0168   134.5    43.7    20.2
2024 02 04    12 00 38.9 +33 28 31   0.04703 1.0209   137.6    40.6    20.3
2024 02 05    11 49 54.1 +33 49 43   0.05026 1.0250   140.3    37.9    20.4
...
2024 02 11    11 04 34.5 +34 28 40   0.07114 1.0499   151.5    26.6    20.8
...
2024 02 19    10 32 11.2 +33 45 01   0.1022  1.0833   157.1    20.8    21.5
...
2024 03 05    10 06 48.4 +31 02 44   0.1702  1.1446   151.8    24.2    22.8

A. U. Tomatic                (C) Copyright 2024 MPC           M.P.E.C. 2024-C43





More information about the Iaude mailing list